Current weather by "City, St" or "zip code"  
 

Current Conditions: Watsonville, Watsonville Municipal Airport, CA

Fair


47.0 F

Last Updated on Oct 31 2020, 12:53 am PDT
Humidity: 90%
Wind Speed: N 0.0 mph
Barometer 30.05 in
Dewpoint: 44.1 F
Visibility: 10.00 mi
Precip: --
Heat Index: NA
Wind Chill: NA
Current conditions at:

Watsonville, Watsonville Municipal Airport, CA (KWVI)

Lat: 36.93944 Lon: 121.78889

Local Radar Image active severe weather and emergency alerts image image weather storm and storm spotter reports image weather observation monitoring service image
Local
Radar
Active
Alerts
Storm Reports Obs
Monitoring

Sign-up For Email & Text Message Weather Alert Notification Services



Advertise Here

Observation History for Watsonville, Watsonville Municipal Airport, CA


Time Wind
(mph)
Vis
(mi)
Weather Precip (in) Temperature (F) Relative
Humidity
Wind
Chill
(F)
Heat
Index
(F)
Pressure
Air Dwpt altimeter
(in)
sea level
(mb)
Rmks
12:53 am PDT N 0.0 10.00 Fair -- 47.0 44.1 90% NA NA 30.05 1017.6
11:53 pm PDT N 0.0 8.00 Fair -- 44.0 43.0 96% NA NA 30.06 1017.9
10:53 pm PDT N 0.0 8.00 Fair -- 49.0 46.9 93% NA NA 30.06 1017.9
9:53 pm PDT N 0.0 7.00 Overcast -- 52.0 48.9 89% NA NA 30.05 1017.5
8:53 pm PDT N 3.5 6.00 Fog/Mist -- 53.0 51.1 93% NA NA 30.04 1017.3
7:53 pm PDT N 0.0 5.00 Fog/Mist -- 54.0 52.0 93% NA NA 30.04 1017.2
6:53 pm PDT S 3.5 7.00 Fair -- 53.0 52.0 96% NA NA 30.02 1016.6
5:53 pm PDT S 4.6 10.00 Fair -- 58.0 53.1 84% 58 NA 30.01 1016.3
4:53 pm PDT S 6.9 10.00 Fair -- 63.0 51.1 65% 63 NA 30.01 1016.1
3:53 pm PDT S 8.1 10.00 Fair -- 66.0 48.0 52% NA NA 30.01 1016.0
2:53 pm PDT SW 8.1 10.00 Fair -- 68.0 50.0 53% NA NA 30.01 1016.3
1:53 pm PDT SW 6.9 10.00 Fair -- 69.0 50.0 51% NA NA 30.03 1016.7
12:53 pm PDT W 6.9 10.00 Fair -- 70.0 46.9 44% NA NA 30.05 1017.5
11:53 am PDT S 3.5 10.00 Fair -- 66.0 48.0 52% NA NA 30.06 1017.9
10:53 am PDT S 3.5 10.00 Fair -- 60.0 46.0 60% NA NA 30.08 1018.5
9:53 am PDT N 0.0 10.00 Fair -- 53.0 46.9 80% NA NA 30.09 1019.0
8:53 am PDT N 0.0 10.00 Fair -- 47.0 45.0 93% NA NA 30.09 1018.9
7:53 am PDT N 0.0 9.00 Fair -- 41.0 39.9 96% NA NA 30.07 1018.5
6:53 am PDT N 0.0 8.00 Fair -- 42.0 41.0 96% NA NA 30.07 1018.2
5:53 am PDT N 0.0 0.50 Fog -- 43.0 43.0 100% NA NA 30.06 1018.0
4:53 am PDT N 0.0 0.25 Fog -- 45.0 45.0 100% NA NA 30.05 1017.4
3:53 am PDT N 0.0 0.25 Fog -- 46.0 46.0 100% NA NA 30.05 1017.7
2:53 am PDT N 0.0 0.25 Fog -- 46.0 46.0 100% NA NA 30.06 1017.7

Regional Weather Observation


San Jose / Reid / Hillv, CA (KRHV)

Clear
57.0 F

South County Airport of Santa Clara County, CA (KE16)

Mostly Cloudy
50.0 F

Palo Alto Airport, CA (KPAO)

Clear
66.0 F

Watsonville, Watsonville Municipal Airport, CA (KWVI)

Fair
47.0 F

San Carlos Airport, CA (KSQL)

Fair
52.0 F

Hayward, Hayward Air Terminal, CA (KHWD)

Fair
53.0 F